Location: Homer
(59.6430°N, 151.5480°W)
Time: 07:52:38
(UTC-09:00)

Daily predictions for brighter satellites

Satellite Brightness Start Highest point End
(mag) Time Altitude Azimuth Time Altitude Azimuth Time Altitude Azimuth
NOSS 3-4 (A) 3.7 18:56:25 10° WSW 19:02:54 83° NNW 19:09:46 10° ENE
NOSS 3-4 (C) 3.7 18:56:32 10° WSW 19:03:00 83° NNW 19:09:53 10° ENE
NOSS 3-1 (A) 4.0 18:57:42 10° WNW 19:04:36 77° NNE 19:12:31 10° ESE
NOSS 2-2 (E) 4.1 19:01:20 10° SW 19:05:40 55° SE 19:11:07 10° ENE
Okean 2 Rocket 3.1 19:01:21 10° S 19:05:47 77° E 19:10:13 10° NNE
ATLAS CENTAUR R/B 1.8 19:03:01 10° WSW 19:07:20 62° NNW 19:11:22 10° ENE
Resurs 1-3 4.2 19:05:47 10° SE 19:09:50 37° ENE 19:13:54 10° N
ERS-1 Rocket 4.4 19:06:26 10° E 19:09:56 19° NE 19:13:27 10° N
ATLAS 2AS CENTAUR R/B 3.3 19:02:07 10° W 19:10:14 67° N 19:18:17 10° E
Cosmos 1315 Rocket 4.4 19:06:48 10° SW 19:10:30 38° WNW 19:14:12 10° N
Envisat 4.1 19:06:35 10° ESE 19:10:37 24° NE 19:14:40 10° N
Cosmos 1340 2.8 19:07:59 10° NNW 19:11:49 82° WSW 19:15:37 10° SSE
USA 215 3.7 19:06:10 10° ENE 19:12:30 49° SSE 19:18:48 10° SW
Cosmos 1892 Rocket 4.5 19:10:23 10° N 19:14:11 28° ENE 19:17:59 10° ESE
Meteor 1-25 Rocket 4.3 19:09:21 10° S 19:14:59 71° E 19:20:45 10° NNE
USA 186 3.2 19:13:12 10° E 19:15:04 16° ENE 19:16:53 10° NNE
OPS 6432 4.3 19:13:31 10° WSW 19:16:33 77° NNW 19:19:48 10° ENE
SL-16 R/B 4.5 19:11:47 10° N 19:16:48 26° NW 19:21:48 10° W
Cosmos 1602 4.5 19:14:00 10° SSE 19:17:30 32° E 19:21:02 10° NNE
Cosmos 2181 Rocket 4.0 19:11:29 10° NNW 19:17:45 79° ENE 19:24:04 10° SSE
RESURS DK-1 3.4 19:14:28 10° WSW 19:18:28 44° NW 19:22:29 10° NE
SL-16 R/B 2.8 19:13:22 10° NW 19:18:44 40° NNE 19:24:06 10° E
USA 116 4.2 19:15:34 10° NNE 19:19:36 73° WNW 19:24:08 10° SSW
Okean 1 Rocket 3.9 19:16:28 10° SSE 19:20:21 29° E 19:24:14 10° NNE
Cosmos 1025 Rocket 3.3 19:16:10 10° N 19:20:25 47° ENE 19:24:40 10° SE
NOSS 3-1 (C) 4.0 19:16:04 10° WNW 19:23:03 90° NNE 19:31:03 10° ESE
SAR-Lupe-4 4.3 19:21:26 10° SE 19:24:42 33° ENE 19:27:58 10° N
Cosmos 371 Rocket 4.1 19:21:00 10° NNW 19:25:27 33° NE 19:29:54 10° ESE
Cosmos 2151 Rocket 3.6 19:20:59 10° S 19:25:29 64° E 19:30:00 10° NNE
Geosat 4.1 19:20:37 10° NE 19:25:37 58° ESE 19:30:35 10° SSW
NOSS 2-2 (D) 3.9 19:22:44 10° SW 19:27:06 64° SE 19:32:36 10° ENE
SKYMED 2 3.5 19:26:06 10° NNE 19:30:28 70° ESE 19:34:49 10° S
Meteor 1-28 Rocket 3.2 19:27:07 10° NNE 19:30:54 60° E 19:34:42 10° S
FREGAT/IRIS 2.8 19:32:16 10° SSE 19:35:22 79° WSW 19:38:30 10° NNW
ALOS 2.2 19:30:51 10° SSE 19:35:31 76° ENE 19:40:14 10° NNW
Cosmos 1709 Rocket 4.0 19:31:47 10° S 19:37:53 65° E 19:43:58 10° NNE
Cosmos 2074 Rocket 4.5 19:33:31 10° SSE 19:39:11 37° E 19:44:55 10° NNE
Cosmos 841 Rocket 3.9 19:34:57 10° NNW 19:39:55 45° NE 19:44:47 10° ESE
Cosmos 2333 Rocket 2.2 19:34:16 10° NW 19:40:03 83° NE 19:45:51 10° SE
Cosmos 2082 Rocket 3.3 19:35:08 10° WSW 19:40:37 44° NNW 19:46:07 10° NE
Cosmos 1437 3.6 19:37:38 10° N 19:40:37 30° ENE 19:43:29 11° SE
Meteor 1-11 Rocket 4.0 19:35:35 10° S 19:41:14 51° E 19:47:00 10° NNE
Cosmos 1980 3.7 19:37:19 10° NW 19:43:01 76° NE 19:48:41 10° SE
NOSS 2-2 (C) 3.9 19:39:57 10° SW 19:44:23 76° SE 19:50:02 10° ENE
Okean 1-7 Rocket 3.6 19:39:58 10° NNW 19:44:34 86° ENE 19:49:05 10° SSE
Cosmos 2184 Rocket 4.4 19:38:54 10° SSE 19:44:37 39° E 19:50:19 10° NNE
H-2A R/B 3.9 19:43:08 11° ENE 19:46:00 16° NE 19:49:14 10° N
deb Kosmos-1763 4.2 19:43:26 10° SSW 19:47:14 85° WNW 19:51:05 10° NNE
ASTRO F (AKARI) 4.5 19:46:14 10° NNE 19:49:54 66° ESE 19:53:21 10° S
Cosmos 1763 Rocket 3.6 19:46:25 10° NNW 19:51:28 57° NE 19:56:32 10° SE
Nadezhda 3 Rocket 4.2 19:46:00 10° N 19:51:59 49° ENE 19:57:57 10° SE
Cosmos 1633 2.5 19:48:20 10° S 19:52:00 66° E 19:55:41 10° NNE
Cosmos 1515 4.3 19:50:15 10° N 19:53:53 37° ENE 19:57:13 12° SE
CZ-4B DEB 3.3 19:54:41 16° SE 19:56:49 35° ENE 19:59:44 10° N
Cosmos 540 Rocket 4.2 19:53:09 10° NNW 19:57:53 35° NE 20:01:08 18° E
Cosmos 407 Rocket 3.5 19:53:02 10° SSW 19:58:21 89° ESE 20:03:45 10° NNE
Cosmos 1626 Rocket 4.5 19:54:27 10° N 19:58:25 30° ENE 20:01:03 17° ESE
FENGYUN 3A 3.8 19:53:28 10° SSE 19:58:55 79° WSW 20:04:23 10° NNW
Cosmos 1741 Rocket 4.5 19:54:15 10° S 19:59:00 37° ESE 20:03:47 10° NE
NOSS 0 Rocket 4.1 19:55:57 10° NW 20:02:09 76° SW 20:08:16 10° SSE
Terra 3.9 20:00:42 11° NE 20:02:16 12° NE 20:04:08 10° NNE
Cosmos 405 Rocket 2.8 19:59:34 10° NNW 20:03:41 69° ENE 20:07:45 10° SSE
Cosmos 2285 Rocket 4.4 19:58:07 10° NW 20:04:34 71° WSW 20:10:57 10° SSE
Cosmos 676 Rocket 3.9 20:00:25 10° SSW 20:05:38 78° ESE 20:10:56 10° NNE
SJ-6B 4.0 20:02:01 10° S 20:05:48 45° W 20:09:33 10° NNW
Cosmos 1833 Rocket 3.9 20:01:22 10° W 20:06:37 38° NNW 20:11:52 10° NE
Okean 2 3.3 20:05:49 10° NNW 20:10:01 84° ENE 20:14:12 10° SSE
Cosmos 1818 3.6 20:05:18 10° SW 20:10:41 64° SE 20:15:38 13° ENE
YAOGAN 6 3.8 20:10:10 22° ENE 20:10:43 23° ENE 20:13:37 10° N
Cosmos 1140 Rocket 3.5 20:06:35 10° SSW 20:11:40 62° ESE 20:16:48 10° NE
Helios 1B rocket 3.3 20:10:18 10° NE 20:13:52 27° E 20:17:26 10° SSE
Cosmos 614 Rocket 4.0 20:09:28 10° S 20:14:23 52° ESE 20:19:20 10° NE
Meteor 1-5 Rocket 4.5 20:09:13 10° S 20:14:57 50° E 20:20:32 10° NNE
CZ-2D R/B 3.2 20:12:57 10° SSE 20:16:46 86° WSW 20:20:39 10° NNW
H-2A R/B 3.0 20:13:57 10° S 20:17:41 69° WSW 20:21:31 10° NNW
COSMO-SKYMED 1 3.5 20:14:18 10° N 20:18:33 52° WNW 20:22:47 10° SW
Cosmos 1300 Rocket 3.6 20:14:14 10° SSW 20:18:41 84° WNW 20:23:12 10° NNE
Cosmos 468 Rocket 4.3 20:13:45 10° NW 20:18:58 70° WSW 20:24:12 10° SSE
Helios 1A 2.9 20:15:30 10° SSE 20:19:40 87° ENE 20:23:52 10° NNW
NOSS 5 (C) 4.3 20:18:33 10° WSW 20:21:38 75° NNW 20:23:14 27° ENE
Cosmos 1455 Rocket 3.8 20:25:01 26° ESE 20:26:05 30° E 20:29:53 10° NNE
Cosmos 2237 Rocket 2.5 20:22:24 10° NW 20:28:06 71° WSW 20:33:47 10° SSE
Cosmos 1603 4.2 20:23:09 10° NW 20:28:36 45° NE 20:31:31 25° E
COSMOS 2428 4.4 20:24:34 10° NW 20:29:38 34° WSW 20:34:41 10° S
Cosmos 1066 Rocket 4.2 20:25:44 10° NNW 20:31:28 66° ENE 20:36:14 14° SSE
TSX-5 3.3 20:29:02 10° SW 20:32:17 81° SE 20:34:40 21° NE
Spot 2 Rocket 4.2 20:27:48 10° S 20:32:47 55° WSW 20:37:49 10° NNW
Aureole 2 Rocket 2.3 20:29:23 10° NNW 20:33:02 69° NE 20:34:05 40° SE
Resurs 01 Rocket 2.6 20:29:26 10° S 20:33:42 48° W 20:38:01 10° NNW
Cosmos 1441 Rocket 3.2 20:29:51 10° NNW 20:33:49 70° ENE 20:36:11 23° SSE
Cosmos 1536 2.8 20:31:38 10° SSW 20:35:37 85° W 20:39:39 10° NNE
SPOT 5 3.7 20:34:09 28° E 20:35:51 36° NE 20:40:36 10° N
Cosmos 1939 Rocket 2.8 20:34:08 27° SE 20:36:05 60° ENE 20:40:05 10° N
ARGOS 3.9 20:36:12 27° E 20:38:06 35° NE 20:42:58 10° N
Cosmos 1814 Rocket 4.4 20:33:57 10° NW 20:39:06 64° WSW 20:44:11 10° SSE
Cosmos 1346 3.7 20:37:41 10° N 20:39:55 38° NNE 20:39:55 38° NNE
Cosmos 2219 Rocket 3.3 20:36:06 10° NW 20:41:22 43° WSW 20:46:37 10° S
Meteor 1-21 4.5 20:36:17 10° NNW 20:41:54 49° ENE 20:44:34 29° ESE
USA 32 4.0 20:37:44 10° N 20:42:58 65° ENE 20:47:03 17° SSE
Meteor 2-8 Rocket 4.3 20:38:11 10° NNW 20:44:16 70° ENE 20:49:18 15° SSE
USA 186 2.1 20:43:40 20° S 20:45:28 54° WSW 20:48:13 10° NNW
ATLAS CENTAUR R/B 2.3 20:42:54 10° WNW 20:46:53 40° N 20:48:30 27° NE
ERS-1 Rocket 3.0 20:45:13 27° SE 20:47:57 63° ENE 20:52:57 10° NNW
Cosmos 1850 Rocket 3.9 20:43:02 10° SSW 20:48:22 75° ESE 20:53:44 10° NE
Envisat 2.9 20:44:41 14° SSE 20:49:07 86° ENE 20:54:15 10° NNW
MetOp-B 4.4 20:49:56 33° ESE 20:51:58 50° ENE 20:57:09 10° NNW
Cosmos 1892 Rocket 4.2 20:48:07 10° NNW 20:52:23 56° W 20:56:39 10° S
H-2A R/B 3.3 20:53:45 25° NE 20:53:45 25° NE 20:57:09 10° N
Cosmos 1954 Rocket 4.4 20:48:43 10° SW 20:53:56 67° NW 20:59:14 10° NNE
NOSS 3-4 (A) 3.9 20:47:50 10° W 20:54:22 64° N 20:58:26 26° ENE
NOSS 3-4 (C) 3.9 20:47:56 10° W 20:54:28 64° N 20:58:33 26° ENE
NOSS 3-1 (A) 4.4 20:48:37 10° WNW 20:55:38 59° SW 21:01:46 18° SSE
Cosmos 332 Rocket 4.0 20:51:12 10° NW 20:56:07 70° WSW 20:59:13 22° SSE
USA 215 3.2 20:52:31 29° E 20:56:07 71° S 21:02:39 10° WSW
NOSS 2-2 (E) 4.3 20:51:34 10° W 20:56:20 68° NNW 21:00:02 24° ENE
Cosmos 2219 3.2 20:50:59 10° SSW 20:56:40 64° ESE 21:02:21 10° NE
Cosmos 1975 3.9 20:58:17 31° NE 20:58:17 31° NE 21:00:45 10° NNE
RESURS DK-1 4.5 20:54:10 10° WNW 20:57:28 22° NNW 21:00:13 12° NE
Okean 1 Rocket 3.9 20:53:41 10° SSW 20:58:05 53° WNW 21:02:29 10° N
GENESIS II 4.5 20:54:55 10° WNW 20:58:58 64° SW 21:00:00 44° SSE
Cosmos 1610 Rocket 4.3 20:53:18 10° S 20:59:29 77° E 21:05:39 10° NNE
Cosmos 2227 Rocket 4.2 20:55:06 10° SSE 21:06:54 - NE 20:55:35 12° SSE
ATLAS 2AS CENTAUR R/B 3.1 20:53:43 10° WNW 21:01:57 87° NNE 21:06:10 32° ESE
SL-16 R/B 2.2 20:57:39 10° NW 21:03:22 79° SW 21:06:21 29° SSE
Cosmos 1842 4.1 21:00:51 10° N 21:04:01 36° NE 21:04:01 36° NE
Cosmos 371 Rocket 3.5 21:01:26 10° NW 21:06:19 72° WSW 21:08:41 30° SSE
Cosmos 1943 3.7 21:03:28 10° NW 21:08:58 45° NE 21:10:35 36° ENE
NOSS 2-2 (D) 4.3 21:13:11 10° W 21:17:56 64° N 21:20:45 30° ENE
NOAA 11 4.1 21:19:33 47° SE 21:21:04 69° ENE 21:26:32 10° NNW
Cosmos 841 Rocket 4.2 21:16:57 10° NW 21:21:57 51° WSW 21:24:55 23° S
Cosmos 2333 Rocket 4.0 21:18:57 10° NW 21:23:52 29° WSW 21:28:45 10° SSW
H-2A R/B 2.5 21:23:45 44° ENE 21:24:17 45° ENE 21:29:29 10° N
Cosmos 2074 Rocket 4.5 21:18:10 10° SSW 21:24:23 63° WNW 21:30:40 10° N
Cosmos 1544 Rocket 3.5 21:21:42 10° SSW 21:26:03 82° WNW 21:30:25 10° NNE
Cosmos 2082 Rocket 3.9 21:21:12 10° WNW 21:26:04 27° N 21:30:05 14° NE
SL-8 Rocket 4.1 21:27:44 45° SE 21:29:07 54° E 21:35:16 10° NNE
Cosmos 1295 Rocket 4.4 21:26:01 26° SSE 21:29:35 64° E 21:35:51 10° NNE
Cosmos 1602 Rocket 4.0 21:26:52 10° NNW 21:31:15 62° W 21:32:47 38° SSW
GEOS 3 Rocket 4.1 21:35:51 43° S 21:35:51 43° S 21:39:48 10° SSW
NOSS 2-2 (C) 4.4 21:30:33 10° W 21:35:21 61° N 21:37:33 37° ENE
Cosmos 1626 Rocket 4.2 21:32:09 10° NNW 21:36:32 55° W 21:38:13 34° SSW
MetOp-A 4.1 21:36:23 50° SSE 21:37:51 87° WSW 21:43:16 10° NNW
Terra 2.7 21:39:35 35° NE 21:39:35 35° NE 21:43:16 10° N
Cosmos 540 Rocket 3.6 21:34:48 10° NW 21:39:54 70° WSW 21:40:59 53° S
Cosmos 1825 Rocket 3.7 21:35:43 10° NNW 21:39:42 65° NNE 21:39:42 65° NNE
Cosmos 1741 Rocket 4.5 21:35:51 10° SW 21:41:00 59° NW 21:46:13 10° NNE
YAOGAN 6 3.4 21:44:37 49° WNW 21:44:37 49° WNW 21:47:38 10° NNW
YAOGAN 11 4.4 21:46:43 59° SW 21:47:16 66° WSW 21:51:50 10° NNW
Helios 1B rocket 3.1 21:45:23 10° NNE 21:49:29 56° WNW 21:53:33 10° SW
Cosmos 1833 Rocket 4.4 21:47:19 10° WNW 21:52:01 26° N 21:55:05 17° NE
Cosmos 1818 4.0 21:49:01 10° W 21:54:26 60° NNW 21:56:17 39° NE
Cosmos 2341 Rocket 4.1 21:50:21 10° SSW 21:56:45 81° WNW 22:03:13 10° NNE
Cosmos 304 Rocket 3.8 21:52:35 10° NW 21:57:19 73° WSW 21:57:19 73° WSW
Cosmos 2154 Rocket 4.4 21:52:57 10° SSW 21:59:15 65° WNW 22:05:35 10° N
COSMOS 2406 4.1 21:56:49 10° NW 22:02:12 37° NNE 22:02:56 36° NE
Cosmos 1727 Rocket 4.0 21:56:18 10° NNW 22:02:40 82° W 22:04:14 54° S
Cosmos 1455 Rocket 3.8 22:01:56 30° SW 22:03:47 50° WNW 22:08:03 10° N
Cosmos 1758 Rocket 4.2 22:00:02 10° NNW 22:03:32 53° N 22:03:32 53° N
SPOT 1/Viking Rocket 3.4 22:05:01 87° W 22:05:01 87° W 22:10:13 10° NNW
Cosmos 1680 Rocket 4.1 22:04:24 10° NNW 22:09:07 46° NNE 22:09:07 46° NNE
Cosmos 1538 Rocket 4.0 22:04:51 10° NNW 22:09:54 79° N 22:09:54 79° N
SL-08 RB Rocket 4.1 22:11:06 62° NNW 22:11:06 62° NNW 22:15:00 10° NNW
Cosmos 2237 Rocket 4.4 22:07:21 10° WNW 22:11:18 20° W 22:15:15 10° SW
Cosmos 1603 3.8 22:07:25 10° NW 22:13:05 66° WSW 22:13:25 65° SW
SPOT 5 3.3 22:13:23 57° WSW 22:13:45 59° WSW 22:18:54 10° NNW
Cosmos 1953 Rocket 4.5 22:12:06 10° NNW 22:15:11 45° NNW 22:15:11 45° NNW
Cosmos 923 Rocket 4.4 22:12:42 10° NNW 22:17:18 55° NNE 22:17:18 55° NNE
ARGOS 3.3 22:17:42 62° SW 22:18:08 65° WSW 22:23:32 10° NNW
Meteor 2-15 Rocket 4.3 22:18:30 10° NNW 22:24:41 88° W 22:24:51 85° SSW
ATLAS CENTAUR R/B 3.0 22:22:26 10° WNW 22:24:47 31° NW 22:24:47 31° NW
Cosmos 2366 rocket 3.8 22:28:43 85° NE 22:28:43 85° NE 22:34:45 10° NNE
H-2A R/B 3.3 22:30:52 39° NNW 22:30:52 39° NNW 22:33:39 10° NNW
Cosmos 773 Rocket 4.4 22:27:06 10° NNW 22:31:33 63° NNW 22:31:33 63° NNW
Meteor 1-24 Rocket 4.4 22:33:44 10° NNW 22:37:35 43° NNE 22:37:35 43° NNE
USA 215 3.2 22:39:51 67° SSW 22:39:51 67° SSW 22:46:06 10° W
Cosmos 2219 4.1 22:35:35 10° WSW 22:41:08 47° NW 22:46:40 10° NE
Cosmos 2123 Rocket 4.2 22:37:16 10° N 22:42:45 61° NNE 22:42:45 61° NNE
Cosmos 2227 Rocket 4.4 22:48:39 14° NE 22:48:39 14° NE 22:49:21 10° NE
NOSS 3-4 (A) 3.6 22:39:06 10° WNW 22:45:50 85° NNE 22:45:53 85° NE
NOSS 3-4 (C) 3.6 22:39:12 10° WNW 22:45:57 85° NNE 22:46:00 85° NE
SL-16 R/B 4.0 22:42:29 10° NW 22:46:45 22° WSW 22:48:16 20° SW
Cosmos 2218 Rocket 4.1 22:46:10 64° WSW 22:46:52 70° WNW 22:53:12 10° NNE
Meteor 2-5 Rocket 4.1 22:41:45 10° NNW 22:46:13 59° NNW 22:46:13 59° NNW
ATLAS 2AS CENTAUR R/B 3.5 22:44:59 10° WNW 22:52:40 47° SW 22:53:37 45° SSW
Cosmos 1943 3.7 22:47:41 10° NW 22:52:25 56° WNW 22:52:25 56° WNW
Aureole 1 Rocket 4.2 22:48:14 10° NNW 22:56:04 82° W 22:56:04 82° W
H-2A R/B 3.0 23:04:23 46° WNW 23:04:23 46° WNW 23:09:03 10° NNW
Cosmos 2082 Rocket 3.6 23:06:41 10° NW 23:11:48 31° NNE 23:11:56 31° NNE
Terra 3.4 23:18:27 32° NW 23:18:27 32° NW 23:21:14 10° NNW
Cosmos 1833 Rocket 4.1 23:32:24 10° NW 23:36:46 32° N 23:36:46 32° N
COSMOS 2406 4.4 23:41:22 10° NW 23:45:00 40° NW 23:45:00 40° NW
